Regional Weather Roundup
Issued by NWS Jackson, KY

Home | Current Version | Previous Version | Text Only | Print | Product List | Glossary On
Versions: 1 2 3 4 5 6 7 8 9 10 11 12 13 14 15 16 17 18 19 20 21 22 23 24 25 26 27 28 29 30 31 32 33 34 35 36 37 38 39 40 41 42 43 44 45 46 47 48 49 50
000
ASUS43 KJKL 261810
RWRJKL

EAST KENTUCKY HOURLY WEATHER ROUNDUP
NATIONAL WEATHER SERVICE JACKSON KY
200 PM EDT TUE SEP 26 2017

NOTE: "FAIR" INDICATES FEW OR NO CLOUDS BELOW 12,000 FEET WITH
NO SIGNIFICANT WEATHER AND/OR OBSTRUCTIONS TO VISIBILITY.

* THESE REPORTS ARE NOT UNDER NWS QUALITY CONTROL AND MAY NOT
  REPORT WEATHER SUCH AS PRECIPITATION AND FOG.

KYZ079-080-083-085-087-088-110-112-115-119-120-261900
...EASTERN KENTUCKY...

CITY           SKY/WX    TMP DP  RH WIND       PRES   REMARKS
JACKSON        PTSUNNY   83  64  52 CALM      30.04F
6HR MIN TEMP:  64; 6HR MAX TEMP:  84;

LONDON         SUNNY     84  61  45 E3        30.03F
6HR MIN TEMP:  59; 6HR MAX TEMP:  84;

SOMERSET*      SUNNY     82  61  47 CALM      30.03F
MONTICELLO*    SUNNY     84  65  52 N12G17    30.04F
MIDDLESBORO*   SUNNY     83  64  51 CALM      30.02F
6HR MIN TEMP:  60; 6HR MAX TEMP:  84;

HARLAN APT*    MOCLDY    81  63  54 CALM      30.03F
PIKE CO APT*     N/A     81  65  56 CALM      30.04F
BIG SANDY APT* CLEAR     84  68  57 N3        30.03F
6HR MIN TEMP:  62; 6HR MAX TEMP:  85;

MOREHEAD APT*  CLEAR     86  61  42 NW6       30.05F
$$

KYZ035-036-041-042-044-050-067-078-099-261900
...CENTRAL KENTUCKY...

CITY           SKY/WX    TMP DP  RH WIND       PRES   REMARKS
DANVILLE*      SUNNY     84  61  45 W3        30.04F
LEXINGTON      SUNNY     85  62  46 S5        30.03F
6HR MIN TEMP:  62; 6HR MAX TEMP:  87;

FRANKFORT      SUNNY     87  62  43 CALM      30.01F
6HR MIN TEMP:  62; 6HR MAX TEMP:  87;

LOUISVILLE     MOSUNNY   88  63  43 VRB5      30.00F
6HR MIN TEMP:  70; 6HR MAX TEMP:  88;

LEBANON*         N/A     84  64  51 N5        30.02F
GLASGOW*       SUNNY     83  64  54 CALM      30.01F
BOWLING GREEN  SUNNY     87  65  47 NE7       30.00F
6HR MIN TEMP:  64; 6HR MAX TEMP:  88;

$$

KYZ091>093-OHZ055-061-077-WVZ005-015-034-035-042-261900
...SOUTHERN OHIO/WEST VIRGINIA...

CITY           SKY/WX    TMP DP  RH WIND       PRES   REMARKS
COVINGTON      MOSUNNY   87  64  46 W8        30.02F
COLUMBUS       MOSUNNY   89  61  38 VRB3      30.01F
DAYTON         MOSUNNY   86  59  39 VRB3      30.03F
WILMINGTON     SUNNY     87  63  44 S5        30.02F
HUNTINGTON     SUNNY     87  64  46 NW5       30.00F
CHARLESTON     MOSUNNY   85  63  47 NW5       30.00F
PINEVILLE*     PTSUNNY   85  60  43 MISG      30.08F
BECKLEY        SUNNY     80  58  46 NE8       30.07F
BLUEFIELD      MOSUNNY   76  57  51 N6        30.09F
LOGAN CO APT*    N/A     82  64  54 CALM      30.04F
$$

VAZ002-007-008-TNZ017-027-036-066-071-261900
...SOUTHWEST VIRGINIA/EAST TENNESSEE...

CITY           SKY/WX    TMP DP  RH WIND       PRES   REMARKS
WISE*          MOSUNNY   81  57  44 NE8       30.10F
JONESVILLE*      N/A     82  63  51 CALM      30.04F
ABINGDON*      SUNNY     84  61  46 E8        30.04F
BRISTOL        MOSUNNY   86  62  44 NW5       30.01F
MORRISTOWN*    PTCLDY    84  63  48 CALM      30.00F
SEVIERVILLE*   PTCLDY    88  61  40 W7        30.00F
KNOXVILLE      MOSUNNY   83  65  54 VRB6      30.00F
LAFOLLETTE*    CLEAR     84  63  48 CALM      30.04F
OAK RIDGE      SUNNY     84  63  49 CALM      30.01F
CROSSVILLE     MOSUNNY   79  59  50 NW7       30.06F
NASHVILLE      MOSUNNY   89  64  43 VRB6      30.00F HX  90
$$

...KEY TO REMARKS...
VSB - VISIBILITY IN MILES
WCI - WIND CHILL INDEX
HX  - HEAT INDEX

$$



USA.gov is the U.S. government's official web portal to all federal, state and local government web resources and services.